Temp_Advection
nan nan nan nan nan nan nan nan nan nan nan nan nan nan nan nan nan nan nan nan nan nan nan nan nan nan nan nan nan nan nan nan nan
nan 1 1 1 -0 0 0 0 -0 -0 -0 -0 -0 0 0 -0 -0 0 0 -0 -0 -0 -0 -0 -0 -0 -0 -0 -0 -0 -0 -0 nan
nan 1 1 0 -1 1 0 0 -0 -0 -0 -0 -0 -0 0 0 -0 0 -0 -0 -0 -0 0 -0 -0 -0 -0 -0 -0 -0 -0 -0 nan
nan 1 0 -0 1 1 0 0 0 0 -0 -0 -0 -0 0 0 -0 0 0 -0 -0 0 -0 -0 -0 -0 -0 -0 -0 -0 -0 -0 nan
nan 0 0 0 1 0 0 0 0 0 0 -0 -0 -0 -0 0 0 -0 -0 0 0 -0 -0 -0 -0 -0 -0 -0 -0 -0 -0 -0 nan
nan -0 0 1 -0 -0 0 0 0 0 0 0 0 -0 -0 0 0 0 -0 0 -0 -0 -0 -0 -0 -0 -0 -0 -0 -0 -0 -0 nan
nan -0 0 -0 -1 0 0 0 0 0 0 0 0 0 0 0 -0 -0 -0 -0 -0 -0 -0 -0 -0 -0 -0 -0 -0 -0 -0 -0 nan
nan 0 0 -1 -0 0 0 0 0 0 0 0 0 0 0 0 -0 -0 -0 -0 0 0 0 -0 -0 -0 -0 -0 -0 -0 -0 -0 nan
nan -1 -0 -1 -0 0 0 0 0 0 0 0 0 0 0 -0 -0 0 0 -0 -0 0 0 0 0 -0 -0 -0 -0 -0 -0 -0 nan
nan -0 -1 -0 0 0 0 0 0 0 0 0 0 0 -0 0 0 0 0 0 -0 0 0 0 0 0 0 0 0 0 -0 -0 nan
nan 0 -1 -0 0 0 0 0 0 0 0 0 0 0 0 0 0 0 0 0 0 -0 -0 0 0 -0 -0 -0 0 0 0 0 nan
nan -0 -0 0 0 1 0 0 0 0 0 0 0 0 0 0 0 0 0 0 0 0 0 0 0 0 -0 0 0 0 0 0 nan
nan -0 0 1 1 0 0 0 0 0 0 -0 0 0 0 0 0 -0 0 0 0 0 0 0 0 0 -0 0 0 0 0 0 nan
nan 0 0 0 0 -0 -0 -0 0 -0 -0 0 0 0 0 0 -0 -0 -0 0 0 0 0 -0 -0 0 0 0 0 0 0 0 nan
nan -0 -0 -0 -0 0 0 0 -0 -0 0 0 0 0 0 0 -0 -0 -0 -0 0 0 -0 -0 -0 0 0 0 0 0 0 0 nan
nan -0 0 0 0 0 0 0 0 0 0 0 0 0 0 -0 -0 -0 -0 0 0 0 -0 -0 0 0 0 0 0 0 0 0 nan
nan -0 0 0 0 0 0 0 0 0 0 0 -0 0 -0 -0 -0 0 0 0 0 -0 0 0 0 0 0 0 0 0 0 0 nan
nan 0 -0 -0 -0 -0 -0 0 -0 0 -0 0 0 0 -0 -0 0 0 0 0 0 0 0 0 0 -0 0 0 0 0 0 0 nan
nan -0 -0 -0 -0 -0 -0 -0 -0 -0 0 0 -0 -0 0 0 0 1 1 0 0 0 0 0 -0 0 0 0 0 0 0 0 nan
nan nan nan nan nan nan nan nan nan nan nan nan nan nan nan nan nan nan nan nan nan nan nan nan nan nan nan nan nan nan nan nan nan
Wind_Speed
19 19 22 19 17 19 19 20 19 17 16 17 16 13 11 8 8 8 8 8 9 9 9 9 9 9 9 8 8 7 8 8 9
19 21 23 20 18 23 23 20 18 17 16 16 14 11 9 7 8 7 7 7 8 8 9 9 9 9 9 8 8 8 9 8 9
19 20 23 21 21 23 21 19 17 16 16 15 12 10 8 6 7 6 6 6 7 7 8 8 8 8 9 9 8 8 8 9 8
21 20 22 21 24 21 21 19 17 16 15 13 12 9 8 4 4 6 6 5 6 6 6 6 6 7 8 8 8 8 8 8 9
21 21 21 23 22 22 21 18 16 15 14 12 11 9 7 3 2 3 4 4 4 4 4 5 5 7 7 7 7 8 8 9 9
23 23 22 22 22 23 21 18 15 14 12 11 10 8 6 5 2 2 2 1 2 2 3 4 5 6 7 7 7 8 8 8 8
23 24 23 21 25 23 21 18 15 13 11 9 8 7 5 2 2 2 1 1 1 2 2 3 3 5 5 5 6 8 8 7 7
26 26 24 26 26 24 21 19 16 12 10 9 7 7 6 4 4 3 2 3 3 2 2 2 3 4 3 3 4 7 7 7 7
27 30 27 27 27 24 20 17 14 12 11 10 6 7 5 7 7 3 3 4 4 4 3 4 5 5 4 3 4 6 5 5 5
25 28 29 28 26 23 19 16 14 12 10 8 7 8 6 7 8 5 6 5 4 5 5 6 6 6 6 7 6 7 6 5 6
23 25 26 24 24 21 18 16 14 12 8 10 12 11 11 8 8 8 9 5 4 5 6 6 7 8 8 9 9 9 8 7 7
24 23 23 25 23 20 20 15 14 12 11 11 11 10 11 11 13 13 11 5 6 6 5 7 8 9 9 10 11 11 11 10 8
25 25 24 25 24 21 20 18 17 17 15 15 13 14 13 13 12 8 8 9 7 9 10 12 15 13 12 11 12 12 13 11 9
28 28 25 25 25 23 21 20 18 18 18 17 16 16 16 14 15 12 12 12 10 13 14 16 15 12 10 9 12 13 13 12 11
30 32 30 26 25 23 20 19 18 17 16 16 17 15 16 14 12 12 12 13 15 15 16 17 13 10 9 8 8 12 13 14 12
27 29 28 26 24 21 19 16 17 16 14 13 13 15 17 17 16 15 16 16 17 18 19 14 11 10 10 9 9 10 12 12 12
30 29 28 26 25 22 19 18 17 17 16 18 16 14 18 20 20 20 21 22 22 21 15 13 10 11 12 11 11 11 11 12 13
32 30 29 27 26 24 20 19 20 19 17 18 18 8 11 16 25 23 25 25 23 18 15 12 12 13 13 13 13 12 11 12 13
27 28 30 26 24 25 22 22 23 22 22 22 24 25 9 5 9 24 25 22 18 12 12 15 16 15 14 15 14 12 12 13 12
40 30 26 22 22 20 22 18 22 24 27 26 24 24 20 24 15 16 28 22 15 11 13 17 16 18 16 15 13 13 13 14 14
Wind_Direction
174 164 159 170 172 173 162 152 145 141 139 138 135 128 122 119 101 94 93 89 87 85 81 75 70 65 59 55 50 44 37 33 31
171 170 168 173 174 160 157 152 149 147 145 141 137 130 124 114 94 88 86 87 86 84 81 76 68 62 55 50 46 41 37 34 34
177 172 171 171 167 158 157 154 151 149 148 147 144 138 134 113 87 84 78 81 85 84 79 73 65 57 50 45 44 44 41 38 32
178 172 169 170 163 163 164 158 154 152 152 153 149 146 141 129 113 95 80 77 79 77 72 65 58 48 44 40 44 44 40 36 30
185 175 175 169 164 169 167 165 161 158 157 155 155 157 139 149 111 78 68 71 75 68 60 53 42 34 32 37 40 39 30 24 22
186 177 179 170 171 171 171 170 167 167 165 162 159 160 152 152 162 73 45 57 58 51 46 39 33 28 29 32 31 19 17 18 20
183 179 185 176 177 177 177 175 176 175 169 163 164 165 172 176 273 285 301 302 324 338 7 21 18 24 35 36 33 19 22 21 22
195 180 185 183 181 182 183 183 182 181 180 171 168 180 187 196 250 276 287 278 279 293 302 332 353 358 10 23 19 14 10 12 9
196 186 187 188 184 186 188 189 188 192 195 189 174 203 221 233 243 279 263 285 280 284 292 309 318 325 327 320 323 337 343 353 356
196 196 196 194 189 190 193 196 198 200 211 215 201 217 227 217 228 255 278 277 285 287 293 300 302 313 318 313 302 314 309 316 322
206 202 205 203 197 195 198 199 200 205 220 217 216 222 232 206 231 244 271 263 283 308 294 294 296 299 299 307 305 304 298 292 294
217 211 206 199 196 197 201 199 210 218 216 222 226 227 217 222 235 249 266 264 283 286 287 299 295 292 289 279 279 290 292 292 276
219 214 200 196 194 196 205 208 205 211 221 227 230 223 230 235 229 239 253 266 273 269 281 293 295 292 289 276 268 269 278 289 278
221 205 202 199 205 207 209 207 214 222 229 228 231 231 228 235 237 230 238 259 264 251 269 290 289 284 284 280 259 261 272 282 270
209 204 205 209 210 205 206 216 221 228 230 231 232 222 226 233 232 227 234 239 248 255 269 283 276 273 278 288 270 258 262 270 269
209 207 203 199 202 207 212 217 221 222 220 225 229 226 229 229 234 236 235 235 237 252 272 266 264 271 278 284 282 265 261 261 267
208 202 201 202 203 207 214 218 219 221 217 221 234 231 231 225 234 226 233 236 247 259 254 263 267 276 278 277 278 272 264 257 252
207 207 204 205 207 210 212 219 223 222 218 225 226 221 231 240 231 232 231 234 241 248 261 270 276 277 279 281 280 277 259 246 254
207 210 217 207 209 211 218 227 233 236 234 220 221 231 226 230 218 214 217 225 231 236 267 274 277 273 280 289 283 270 256 250 249
219 218 220 218 220 228 233 243 242 251 247 239 232 234 248 255 258 217 195 208 208 236 261 274 276 280 289 285 280 271 258 247 237
Height
1537 1540 1542 1543 1544 1545 1547 1550 1552 1554 1555 1556 1557 1559 1560 1560 1561 1561 1561 1562 1562 1562 1562 1562 1561 1561 1561 1560 1559 1558 1557 1557 1556
1536 1539 1541 1543 1544 1545 1548 1550 1552 1554 1556 1558 1559 1559 1560 1560 1562 1562 1563 1563 1563 1563 1563 1563 1563 1562 1562 1561 1560 1559 1558 1557 1557
1536 1537 1540 1541 1543 1546 1548 1550 1552 1555 1557 1558 1560 1560 1561 1561 1562 1563 1564 1564 1564 1564 1564 1564 1564 1563 1563 1562 1561 1560 1559 1559 1558
1536 1537 1539 1540 1543 1546 1549 1551 1553 1555 1557 1559 1560 1561 1562 1562 1563 1563 1564 1565 1565 1565 1565 1565 1564 1564 1563 1563 1562 1562 1561 1560 1559
1535 1537 1538 1540 1544 1546 1549 1551 1553 1555 1557 1559 1560 1561 1562 1562 1563 1564 1564 1565 1565 1565 1566 1565 1565 1564 1564 1563 1563 1562 1561 1561 1560
1534 1536 1538 1540 1543 1546 1548 1551 1554 1556 1557 1559 1560 1561 1562 1563 1563 1564 1565 1565 1565 1565 1565 1565 1565 1564 1564 1564 1563 1562 1561 1561 1560
1532 1535 1537 1540 1542 1545 1548 1550 1553 1555 1557 1559 1560 1561 1561 1562 1564 1564 1565 1565 1565 1565 1565 1565 1565 1564 1564 1563 1563 1562 1561 1560 1559
1530 1534 1535 1537 1541 1544 1547 1549 1552 1554 1556 1558 1559 1560 1561 1561 1563 1564 1564 1564 1564 1564 1564 1564 1564 1564 1563 1563 1563 1562 1561 1560 1559
1528 1531 1533 1535 1539 1543 1546 1549 1551 1553 1555 1556 1558 1559 1560 1560 1561 1562 1563 1563 1563 1563 1563 1563 1563 1563 1563 1563 1562 1561 1560 1560 1558
1527 1529 1532 1534 1538 1541 1545 1548 1549 1551 1553 1554 1556 1557 1558 1559 1559 1560 1561 1561 1561 1562 1562 1562 1562 1561 1561 1562 1561 1561 1560 1559 1558
1525 1528 1530 1533 1536 1540 1542 1545 1548 1549 1551 1552 1554 1555 1557 1557 1557 1558 1559 1559 1559 1560 1560 1560 1560 1560 1559 1559 1559 1558 1558 1557 1557
1524 1526 1528 1531 1533 1537 1539 1542 1545 1547 1548 1550 1552 1553 1554 1556 1556 1556 1557 1557 1557 1558 1558 1558 1558 1557 1557 1556 1556 1556 1557 1556 1554
1521 1524 1526 1528 1531 1534 1536 1539 1542 1544 1546 1547 1549 1550 1552 1554 1555 1555 1555 1556 1555 1555 1555 1555 1555 1554 1554 1553 1553 1553 1553 1554 1553
1520 1521 1523 1526 1529 1531 1533 1535 1538 1540 1542 1544 1546 1547 1549 1550 1552 1553 1553 1554 1553 1553 1553 1553 1552 1551 1551 1550 1550 1550 1551 1551 1550
1515 1518 1520 1523 1525 1527 1529 1532 1534 1537 1539 1541 1543 1544 1546 1547 1549 1550 1551 1552 1551 1550 1550 1550 1549 1548 1548 1548 1547 1547 1547 1547 1547
1511 1514 1516 1518 1520 1522 1525 1528 1530 1532 1535 1537 1539 1539 1542 1545 1546 1547 1548 1549 1549 1548 1548 1546 1546 1545 1545 1545 1545 1544 1544 1545 1546
1506 1509 1511 1514 1516 1518 1520 1522 1525 1528 1530 1532 1536 1536 1539 1539 1541 1542 1544 1544 1546 1545 1544 1544 1542 1542 1542 1541 1542 1542 1540 1541 1542
1499 1504 1506 1509 1511 1513 1515 1518 1520 1521 1524 1528 1532 1533 1533 1535 1537 1537 1540 1539 1540 1541 1541 1541 1540 1540 1539 1538 1538 1539 1538 1538 1538
1493 1498 1502 1502 1505 1508 1509 1512 1514 1516 1517 1523 1525 1527 1529 1531 1531 1532 1535 1534 1536 1537 1537 1537 1536 1536 1535 1536 1535 1535 1535 1535 1536
1488 1494 1497 1499 1502 1503 1505 1503 1510 1514 1515 1518 1519 1521 1523 1527 1529 1528 1525 1529 1531 1533 1534 1533 1532 1533 1532 1532 1532 1532 1531 1532 1532